User: anonymous   Login
Location: Unspecified
(0.0000°N, 0.0000°E)
Time: 11:46:45
(UTC+00:00)
Language:

Hubble Space Telescope - Orbit

View from above orbital plane
View from above orbital plane
View from above satellite
View from above satellite

Ground track
Ground track

The orbit data is extracted from the following two-line orbital elements,

1 20580U 90037B   19114.53846385 +.00000449 +00000-0 +16399-4 0  9991
2 20580 028.4687 216.6324 0002463 250.8923 221.9755 15.09212050392460
Epoch (UTC): 24 April 2019 12:55:23
Eccentricity: 0.0002463
inclination: 28.4687°
perigee height: 537 km
apogee height: 540 km
right ascension of ascending node: 216.6324°
argument of perigee: 250.8923°
revolutions per day: 15.09212050
mean anomaly at epoch: 221.9755°
orbit number at epoch: 39246

The dashed part of the orbit path shows where the satellite is in the earth's shadow,  

DLR